DC7RY Weather Reports


time (UTC)temp
C
wind
direction
speed
KPH
gust
KPH
rain 1hr
cm
rain 24hr
cm
rain mn
cm
humidity
%
barometer
mb
20260505053022 12 0.0 0.0 0.00 0.08 0.08 99 1003.9
20260505052029 12 0.0 0.0 0.00 0.08 0.08 99 1003.9
20260505051020 12 0.0 0.0 0.00 0.08 0.08 99 1004.0
20260505041030 12 0.0 0.0 0.03 0.08 0.08 99 1004.1
20260505040022 12 0.0 0.0 0.00 0.05 0.05 99 1004.1
20260505035030 12 0.0 0.0 0.00 0.05 0.05 99 1004.2
20260505034021 12 0.0 0.0 0.03 0.05 0.05 99 1004.3
20260505033028 12 0.0 0.0 0.03 0.05 0.05 98 1004.3
20260505032020 12 0.0 0.0 0.03 0.05 0.05 98 1004.8
20260505031028 12 0.0 0.0 0.03 0.05 0.05 98 1004.9
20260505030021 12 0.0 0.0 0.05 0.05 0.05 97 1004.9
20260505025028 12 0.0 0.0 0.05 0.05 0.05 97 1005.1
20260505024020 12 0.0 0.0 0.03 0.03 0.03 96 1005.1
20260505023028 12 0.0 0.0 0.03 0.03 0.03 95 1005.7
20260505022021 12 0.0 0.0 0.03 0.03 0.03 94 1005.8
20260505021028 12 0.0 0.0 0.03 0.03 0.03 94 1005.8
20260505020020 12 0.0 0.0 0.00 0.00 0.00 92 1006.0
20260505015027 13 0.0 0.0 0.00 0.00 0.00 92 1005.9
20260505014019 13 0.0 0.0 0.00 0.00 0.00 90 1005.9
20260505013027 13 0.0 0.0 0.00 0.00 0.00 89 1005.9
20260505012019 13 0.0 0.0 0.00 0.00 0.00 88 1005.9
20260505011027 13 0.0 0.0 0.00 0.00 0.00 86 1006.0
20260505010019 13 0.0 0.0 0.00 0.00 0.00 84 1006.1
20260505005027 13 0.0 0.0 0.00 0.00 0.00 82 1006.0
20260505004019 13 0.0 0.0 0.00 0.00 0.00 81 1005.9
20260505003027 14 0.0 0.0 0.00 0.00 0.00 79 1005.9
20260505002019 14 0.0 0.0 0.00 0.00 0.00 79 1006.0
20260505001026 14 0.0 0.0 0.00 0.00 0.00 78 1005.8
20260505000018 14 0.0 0.0 0.00 0.00 0.00 77 1005.8
20260504235026 14 0.0 0.0 0.00 0.00 0.00 78 1005.9
20260504234018 15 0.0 0.0 0.00 0.00 0.00 78 1005.9
20260504233026 15 0.0 0.0 0.00 0.00 0.00 76 1006.0
20260504232018 15 0.0 0.0 0.00 0.00 0.00 74 1006.3
20260504231026 15 0.0 3.2 0.00 0.00 0.00 73 1006.5
20260504230018 15 272 0.0 3.2 0.00 0.00 0.00 73 1006.6
20260504225025 15 0.0 3.2 0.00 0.00 0.00 72 1006.6
20260504224017 16 270 0.0 3.2 0.00 0.00 0.00 72 1006.8
20260504223025 16 272 0.0 3.2 0.00 0.00 0.00 71 1006.8
20260504222017 16 271 0.0 8.0 0.00 0.00 0.00 72 1006.7
20260504221025 16 275 0.0 3.2 0.00 0.00 0.00 72 1006.8
20260504220017 16 0.0 0.0 0.00 0.00 0.00 71 1006.9
20260504215018 16 0.0 0.0 0.00 0.00 0.00 71 1007.0
20260504214025 16 0.0 0.0 0.00 0.00 0.00 72 1006.9
20260504213017 16 0.0 0.0 0.00 0.00 0.00 71 1006.8
20260504212025 16 0.0 0.0 0.00 0.00 0.00 72 1007.0
20260504211001 16 0.0 0.0 0.00 0.00 0.00 70 1007.0
20260504210024 16 282 0.0 3.2 0.00 0.00 0.00 69 1006.9
20260504205032 16 270 0.0 3.2 0.00 0.00 0.00 69 1006.8
20260504204022 16 276 1.6 8.0 0.00 0.00 0.00 69 1006.7
20260504203028 16 273 1.6 3.2 0.00 0.00 0.00 68 1006.7
20260504202020 16 290 0.0 8.0 0.00 0.00 0.00 68 1006.7
20260504201027 17 281 1.6 8.0 0.00 0.00 0.00 67 1006.8
20260504200033 17 307 0.0 3.2 0.00 0.00 0.00 66 1006.8
20260504195031 17 265 0.0 3.2 0.00 0.00 0.00 65 1006.9
20260504194020 17 270 0.0 3.2 0.00 0.00 0.00 64 1006.8
20260504193026 17 274 1.6 8.0 0.00 0.00 0.00 63 1007.0
20260504192031 18 274 1.6 8.0 0.00 0.00 0.00 62 1006.9
20260504191021 18 271 1.6 8.0 0.00 0.00 0.00 62 1007.0
20260504190025 18 275 3.2 12.9 0.00 0.00 0.00 61 1007.0
20260504185017 18 275 3.2 12.9 0.00 0.00 0.00 60 1007.0
20260504184025 19 266 1.6 8.0 0.00 0.00 0.00 58 1006.8
20260504183030 20 278 6.4 16.1 0.00 0.00 0.00 56 1006.8
20260504182023 20 286 3.2 20.9 0.00 0.00 0.00 53 1006.6
20260504181028 20 0.0 0.0 0.00 0.00 0.00 53 1006.5
20260504180027 20 273 0.0 8.0 0.00 0.00 0.00 52 1006.5
20260504175018 20 272 3.2 16.1 0.00 0.00 0.00 53 1006.6
20260504174025 20 270 0.0 3.2 0.00 0.00 0.00 54 1006.6
20260504173032 20 272 1.6 8.0 0.00 0.00 0.00 53 1006.5
20260504172024 21 0.0 0.0 0.00 0.00 0.00 52 1006.5
20260504171031 21 271 1.6 8.0 0.00 0.00 0.00 50 1006.5
20260504151019 24 0.0 0.0 0.00 0.00 0.00 46 1007.4
20260504141021 25 286 1.6 12.9 0.00 0.00 0.00 42 1007.7
20260504081029 17 174 0.0 3.2 0.00 0.00 0.00 56 1010.1